Simultaneous Nadir Overpasses (SNOs) Predictions

Prediction of SNOs between LANDSAT-8 and METOP-A Satellite Orbit:

Table of predicted SNOs for the next 14.0 days since TLE Epoch: 9/21/2019
Index Date (LANDSAT-8) Time (LANDSAT-8) Lat,Lon (LANDSAT-8) SZA (LANDSAT-8 ) Date (METOP-A) Time (METOP-A) Lat,Lon (METOP-A) SZA (METOP-A ) Distance(km) Time Diff (sec)
1 09/23/2019 06:17:16 81.48, 132.32 84.32 09/23/2019 06:16:38 81.48, 132.16 84.28 2.61 38
2 09/23/2019 07:06:43 -81.48, -60.08 95.68 09/23/2019 07:07:18 -81.47, -60.12 95.67 0.80 35
3 09/26/2019 01:51:32 81.48,-161.23 85.44 09/26/2019 01:51:02 81.48,-161.32 85.41 1.60 30
4 09/26/2019 02:40:59 -81.48, 6.40 94.56 09/26/2019 02:41:42 -81.47, 6.42 94.54 0.77 43
5 09/28/2019 21:25:48 81.48, -94.80 86.55 09/28/2019 21:25:26 81.48, -94.80 86.54 0.59 22
6 09/28/2019 22:15:15 -81.48, 72.84 93.44 09/28/2019 22:16:06 -81.47, 72.94 93.41 1.88 51
7 10/01/2019 17:00:03 81.48, -28.40 87.66 10/01/2019 16:59:49 81.47, -28.30 87.66 1.75 14
8 10/01/2019 17:49:30 -81.48, 139.26 92.33 10/01/2019 17:50:30 -81.47, 139.06 92.33 3.27 60
9 10/04/2019 12:34:19 81.48, 37.97 88.76 10/04/2019 12:34:14 81.48, 37.80 88.73 2.86 5




NCC Satellite Simultaneous Nadir Overpasses (SNOs) Prediction Service
